Starlink 11599

operational
NORAD ID: 63670 Int'l Des: 2025-085 Owner: SPXS Country: US Constellation: starlink
LEOCIRCULAR

Starlink 11599について

説明を読み込み中...

リアルタイム位置

3D地球を読み込み中...

次回通過

高度履歴

Altitude vs Time

uPlot chart will show altitude changes over time

軌道要素

1 63670U 25085G 26036.22218834 .00266501 00000-0 20061-2 0 9990
2 63670 42.9997 114.2898 0001287 275.8552 84.2169 15.70939326 45137
Epoch: Feb 5, 2026 • Age: 8 hours

現在のステータス

高度 354.9 km
速度 7.70 km/s
衛星直下点 12.58°N, 154.83°E
打ち上げ日 Apr 28, 2025
運用期間 0.7 years
タイプ internet

技術仕様

分類 Payload
質量 960.00 kg
乾燥質量 910.00 kg
総質量 960.00 kg
長さ 0.30 m
直径 4.10 m
スパン 29.00 m
形状 Box + pan
製造者 SPXS
バスタイプ Starlink V2MD
フェーズステータス In Orbit
所有者/国 SPXS/US

大規模コンステレーション

Loading constellations...